Datum;"Wasserstand in cm";"Stationsnummer: 5899301";"Stationsname: Saldernhorst, Wehr UP";"Gew?sser: Dosse";"Fehlwerte: -777"
"20.03.2024 00:00";157
"20.03.2024 00:15";157
"20.03.2024 00:30";156
"20.03.2024 00:45";156
"20.03.2024 01:00";156
"20.03.2024 01:15";156
"20.03.2024 01:30";156
"20.03.2024 01:45";156
"20.03.2024 02:00";156
"20.03.2024 02:15";156
"20.03.2024 02:30";156
"20.03.2024 02:45";156
"20.03.2024 03:00";156
"20.03.2024 03:15";155
"20.03.2024 03:30";155
"20.03.2024 03:45";155
"20.03.2024 04:00";155
"20.03.2024 04:15";155
"20.03.2024 04:30";155
"20.03.2024 04:45";155
"20.03.2024 05:00";155
"20.03.2024 05:15";155
"20.03.2024 05:30";155
"20.03.2024 05:45";155
"20.03.2024 06:00";155
"20.03.2024 06:15";155
"20.03.2024 06:30";155
"20.03.2024 06:45";154
"20.03.2024 07:00";155
"20.03.2024 07:15";154
"20.03.2024 07:30";154
"20.03.2024 07:45";154
"20.03.2024 08:00";154
"20.03.2024 08:15";154
"20.03.2024 08:30";154
"20.03.2024 08:45";154
"20.03.2024 09:00";154
"20.03.2024 09:15";154
"20.03.2024 09:30";154
"20.03.2024 09:45";154
"20.03.2024 10:00";154
"20.03.2024 10:15";153
"20.03.2024 10:30";153
"20.03.2024 10:45";153
"20.03.2024 11:00";153
"20.03.2024 11:15";153
"20.03.2024 11:30";153
"20.03.2024 11:45";153
"20.03.2024 12:00";153
"20.03.2024 12:15";152
"20.03.2024 12:30";152
"20.03.2024 12:45";152
"20.03.2024 13:00";152
"20.03.2024 13:15";152
"20.03.2024 13:30";152
"20.03.2024 13:45";152
"20.03.2024 14:00";152
"20.03.2024 14:15";152
"20.03.2024 14:30";152
"20.03.2024 14:45";152
"20.03.2024 15:00";152
"20.03.2024 15:15";152
"20.03.2024 15:30";152
"20.03.2024 15:45";152
"20.03.2024 16:00";152
"20.03.2024 16:15";152
"20.03.2024 16:30";152
"20.03.2024 16:45";151
"20.03.2024 17:00";151
"20.03.2024 17:15";151
"20.03.2024 17:30";151
"20.03.2024 17:45";151
"20.03.2024 18:00";151
"20.03.2024 18:15";151
"20.03.2024 18:30";151
"20.03.2024 18:45";151
"20.03.2024 19:00";151
"20.03.2024 19:15";151
"20.03.2024 19:30";151
"20.03.2024 19:45";151
"20.03.2024 20:00";151
"20.03.2024 20:15";151
"20.03.2024 20:30";151
"20.03.2024 20:45";150
"20.03.2024 21:00";150
"20.03.2024 21:15";150
"20.03.2024 21:30";150
"20.03.2024 21:45";150
"20.03.2024 22:00";150
"20.03.2024 22:15";150
"20.03.2024 22:30";150
"20.03.2024 22:45";150
"20.03.2024 23:00";150
"20.03.2024 23:15";150
"20.03.2024 23:30";150
"20.03.2024 23:45";150
"21.03.2024 00:00";150
"21.03.2024 00:15";150
"21.03.2024 00:30";150
"21.03.2024 00:45";150
"21.03.2024 01:00";150
"21.03.2024 01:15";150
"21.03.2024 01:30";150
"21.03.2024 01:45";150
"21.03.2024 02:00";150
"21.03.2024 02:15";150
"21.03.2024 02:30";150
"21.03.2024 02:45";150
"21.03.2024 03:00";150
"21.03.2024 03:15";150
"21.03.2024 03:30";150
"21.03.2024 03:45";150
"21.03.2024 04:00";150
"21.03.2024 04:15";149
"21.03.2024 04:30";149
"21.03.2024 04:45";149
"21.03.2024 05:00";149
"21.03.2024 05:15";149
"21.03.2024 05:30";149
"21.03.2024 05:45";149
"21.03.2024 06:00";149
"21.03.2024 06:15";149
"21.03.2024 06:30";149
"21.03.2024 06:45";149
"21.03.2024 07:00";149
"21.03.2024 07:15";150
"21.03.2024 07:30";150
"21.03.2024 07:45";150
"21.03.2024 08:00";150
"21.03.2024 08:15";150
"21.03.2024 08:30";150
"21.03.2024 08:45";150
"21.03.2024 09:00";150
"21.03.2024 09:15";150
"21.03.2024 09:30";150
"21.03.2024 09:45";150
"21.03.2024 10:00";150
"21.03.2024 10:15";151
"21.03.2024 10:30";150
"21.03.2024 10:45";151
"21.03.2024 11:00";151
"21.03.2024 11:15";151
"21.03.2024 11:30";151
"21.03.2024 11:45";151
"21.03.2024 12:00";151
"21.03.2024 12:15";151
"21.03.2024 12:30";151
"21.03.2024 12:45";151
"21.03.2024 13:00";151
"21.03.2024 13:15";151
"21.03.2024 13:30";152
"21.03.2024 13:45";152
"21.03.2024 14:00";152
"21.03.2024 14:15";152
"21.03.2024 14:30";152
"21.03.2024 14:45";152
"21.03.2024 15:00";152
"21.03.2024 15:15";152
"21.03.2024 15:30";152
"21.03.2024 15:45";152
"21.03.2024 16:00";152
"21.03.2024 16:15";152
"21.03.2024 16:30";152
"21.03.2024 16:45";152
"21.03.2024 17:00";152
"21.03.2024 17:15";152
"21.03.2024 17:30";152
"21.03.2024 17:45";152
"21.03.2024 18:00";152
"21.03.2024 18:15";152
"21.03.2024 18:30";152
"21.03.2024 18:45";152
"21.03.2024 19:00";152
"21.03.2024 19:15";152
"21.03.2024 19:30";153
"21.03.2024 19:45";152
"21.03.2024 20:00";152
"21.03.2024 20:15";152
"21.03.2024 20:30";153
"21.03.2024 20:45";153
"21.03.2024 21:00";152
"21.03.2024 21:15";153
"21.03.2024 21:30";153
"21.03.2024 21:45";153
"21.03.2024 22:00";153
"21.03.2024 22:15";153
"21.03.2024 22:30";153
"21.03.2024 22:45";153
"21.03.2024 23:00";153
"21.03.2024 23:15";153
"21.03.2024 23:30";153
"21.03.2024 23:45";153
"22.03.2024 00:00";153
"22.03.2024 00:15";153
"22.03.2024 00:30";153
"22.03.2024 00:45";153
"22.03.2024 01:00";153
"22.03.2024 01:15";153
"22.03.2024 01:30";153
"22.03.2024 01:45";153
"22.03.2024 02:00";153
"22.03.2024 02:15";153
"22.03.2024 02:30";153
"22.03.2024 02:45";153
"22.03.2024 03:00";153
"22.03.2024 03:15";153
"22.03.2024 03:30";153
"22.03.2024 03:45";153
"22.03.2024 04:00";153
"22.03.2024 04:15";153
"22.03.2024 04:30";153
"22.03.2024 04:45";153
"22.03.2024 05:00";153
"22.03.2024 05:15";153
"22.03.2024 05:30";153
"22.03.2024 05:45";153
"22.03.2024 06:00";153
"22.03.2024 06:15";153
"22.03.2024 06:30";153
"22.03.2024 06:45";153
"22.03.2024 07:00";153
"22.03.2024 07:15";153
"22.03.2024 07:30";153
"22.03.2024 07:45";153
"22.03.2024 08:00";153
"22.03.2024 08:15";153
"22.03.2024 08:30";153
"22.03.2024 08:45";153
"22.03.2024 09:00";153
"22.03.2024 09:15";153
"22.03.2024 09:30";153
"22.03.2024 09:45";153
"22.03.2024 10:00";154
"22.03.2024 10:15";154
"22.03.2024 10:30";154
"22.03.2024 10:45";154
"22.03.2024 11:00";154
"22.03.2024 11:15";154
"22.03.2024 11:30";154
"22.03.2024 11:45";154
"22.03.2024 12:00";154
"22.03.2024 12:15";154
"22.03.2024 12:30";154
"22.03.2024 12:45";154
"22.03.2024 13:00";154
"22.03.2024 13:15";154
"22.03.2024 13:30";154
"22.03.2024 13:45";154
"22.03.2024 14:00";154
"22.03.2024 14:15";154
"22.03.2024 14:30";154
"22.03.2024 14:45";154
"22.03.2024 15:00";154
"22.03.2024 15:15";154
"22.03.2024 15:30";154
"22.03.2024 15:45";154
"22.03.2024 16:00";154
"22.03.2024 16:15";154
"22.03.2024 16:30";154
"22.03.2024 16:45";154
"22.03.2024 17:00";154
"22.03.2024 17:15";154
"22.03.2024 17:30";154
"22.03.2024 17:45";154
"22.03.2024 18:00";154
"22.03.2024 18:15";154
"22.03.2024 18:30";154
"22.03.2024 18:45";154
"22.03.2024 19:00";154
"22.03.2024 19:15";154
"22.03.2024 19:30";154
"22.03.2024 19:45";154
"22.03.2024 20:00";154
"22.03.2024 20:15";154
"22.03.2024 20:30";154
"22.03.2024 20:45";154
"22.03.2024 21:00";154
"22.03.2024 21:15";154
"22.03.2024 21:30";154
"22.03.2024 21:45";154
"22.03.2024 22:00";154
"22.03.2024 22:15";154
"22.03.2024 22:30";154
"22.03.2024 22:45";154
"22.03.2024 23:00";154
"22.03.2024 23:15";154
"22.03.2024 23:30";154
"22.03.2024 23:45";154
"23.03.2024 00:00";154
"23.03.2024 00:15";154
"23.03.2024 00:30";154
"23.03.2024 00:45";154
"23.03.2024 01:00";154
"23.03.2024 01:15";154
"23.03.2024 01:30";154
"23.03.2024 01:45";154
"23.03.2024 02:00";154
"23.03.2024 02:15";154
"23.03.2024 02:30";154
"23.03.2024 02:45";154
"23.03.2024 03:00";154
"23.03.2024 03:15";154
"23.03.2024 03:30";154
"23.03.2024 03:45";154
"23.03.2024 04:00";154
"23.03.2024 04:15";154
"23.03.2024 04:30";154
"23.03.2024 04:45";154
"23.03.2024 05:00";154
"23.03.2024 05:15";154
"23.03.2024 05:30";154
"23.03.2024 05:45";154
"23.03.2024 06:00";155
"23.03.2024 06:15";155
"23.03.2024 06:30";155
"23.03.2024 06:45";155
"23.03.2024 07:00";155
"23.03.2024 07:15";155
"23.03.2024 07:30";155
"23.03.2024 07:45";155
"23.03.2024 08:00";155
"23.03.2024 08:15";155
"23.03.2024 08:30";155
"23.03.2024 08:45";155
"23.03.2024 09:00";155
"23.03.2024 09:15";155
"23.03.2024 09:30";155
"23.03.2024 09:45";155
"23.03.2024 10:00";155
"23.03.2024 10:15";155
"23.03.2024 10:30";155
"23.03.2024 10:45";156
"23.03.2024 11:00";156
"23.03.2024 11:15";156
"23.03.2024 11:30";156
"23.03.2024 11:45";156
"23.03.2024 12:00";156
"23.03.2024 12:15";156
"23.03.2024 12:30";156
"23.03.2024 12:45";156
"23.03.2024 13:00";156
"23.03.2024 13:15";156
"23.03.2024 13:30";156
"23.03.2024 13:45";156
"23.03.2024 14:00";156
"23.03.2024 14:15";157
"23.03.2024 14:30";157
"23.03.2024 14:45";157
"23.03.2024 15:00";157
"23.03.2024 15:15";158
"23.03.2024 15:30";158
"23.03.2024 15:45";158
"23.03.2024 16:00";158
"23.03.2024 16:15";158
"23.03.2024 16:30";158
"23.03.2024 16:45";158
"23.03.2024 17:00";158
"23.03.2024 17:15";158
"23.03.2024 17:30";158
"23.03.2024 17:45";158
"23.03.2024 18:00";158
"23.03.2024 18:15";158
"23.03.2024 18:30";158
"23.03.2024 18:45";158
"23.03.2024 19:00";158
"23.03.2024 19:15";158
"23.03.2024 19:30";158
"23.03.2024 19:45";158
"23.03.2024 20:00";158
"23.03.2024 20:15";158
"23.03.2024 20:30";158
"23.03.2024 20:45";158
"23.03.2024 21:00";158
"23.03.2024 21:15";158
"23.03.2024 21:30";158
"23.03.2024 21:45";158
"23.03.2024 22:00";158
"23.03.2024 22:15";158
"23.03.2024 22:30";158
"23.03.2024 22:45";158
"23.03.2024 23:00";158
"23.03.2024 23:15";158
"23.03.2024 23:30";158
"23.03.2024 23:45";158
"24.03.2024 00:00";158
"24.03.2024 00:15";158
"24.03.2024 00:30";158
"24.03.2024 00:45";158
"24.03.2024 01:00";158
"24.03.2024 01:15";158
"24.03.2024 01:30";158
"24.03.2024 01:45";158
"24.03.2024 02:00";158
"24.03.2024 02:15";158
"24.03.2024 02:30";158
"24.03.2024 02:45";158
"24.03.2024 03:00";158
"24.03.2024 03:15";158
"24.03.2024 03:30";158
"24.03.2024 03:45";158
"24.03.2024 04:00";158
"24.03.2024 04:15";158
"24.03.2024 04:30";158
"24.03.2024 04:45";158
"24.03.2024 05:00";158
"24.03.2024 05:15";158
"24.03.2024 05:30";158
"24.03.2024 05:45";158
"24.03.2024 06:00";158
"24.03.2024 06:15";158
"24.03.2024 06:30";158
"24.03.2024 06:45";158
"24.03.2024 07:00";158
"24.03.2024 07:15";158
"24.03.2024 07:30";159
"24.03.2024 07:45";159
"24.03.2024 08:00";159
"24.03.2024 08:15";159
"24.03.2024 08:30";159
"24.03.2024 08:45";159
"24.03.2024 09:00";159
"24.03.2024 09:15";159
"24.03.2024 09:30";159
"24.03.2024 09:45";159
"24.03.2024 10:00";159
"24.03.2024 10:15";159
"24.03.2024 10:30";159
"24.03.2024 10:45";159
"24.03.2024 11:00";160
"24.03.2024 11:15";160
"24.03.2024 11:30";160
"24.03.2024 11:45";160
"24.03.2024 12:00";160
"24.03.2024 12:15";160
"24.03.2024 12:30";160
"24.03.2024 12:45";160
"24.03.2024 13:00";160
"24.03.2024 13:15";160
"24.03.2024 13:30";161
"24.03.2024 13:45";161
"24.03.2024 14:00";161
"24.03.2024 14:15";161
"24.03.2024 14:30";161
"24.03.2024 14:45";161
"24.03.2024 15:00";161
"24.03.2024 15:15";161
"24.03.2024 15:30";161
"24.03.2024 15:45";161
"24.03.2024 16:00";161
"24.03.2024 16:15";162
"24.03.2024 16:30";162
"24.03.2024 16:45";162
"24.03.2024 17:00";162
"24.03.2024 17:15";162
"24.03.2024 17:30";162
"24.03.2024 17:45";162
"24.03.2024 18:00";162
"24.03.2024 18:15";162
"24.03.2024 18:30";162
"24.03.2024 18:45";162
"24.03.2024 19:00";162
"24.03.2024 19:15";162
"24.03.2024 19:30";162
"24.03.2024 19:45";162
"24.03.2024 20:00";163
"24.03.2024 20:15";163
"24.03.2024 20:30";163
"24.03.2024 20:45";163
"24.03.2024 21:00";163
"24.03.2024 21:15";163
"24.03.2024 21:30";163
"24.03.2024 21:45";163
"24.03.2024 22:00";163
"24.03.2024 22:15";163
"24.03.2024 22:30";163
"24.03.2024 22:45";163
"24.03.2024 23:00";163
"24.03.2024 23:15";164
"24.03.2024 23:30";164
"24.03.2024 23:45";164
"25.03.2024 00:00";164
"25.03.2024 00:15";164
"25.03.2024 00:30";164
"25.03.2024 00:45";164
"25.03.2024 01:00";164
"25.03.2024 01:15";164
"25.03.2024 01:30";165
"25.03.2024 01:45";165
"25.03.2024 02:00";165
"25.03.2024 02:15";165
"25.03.2024 02:30";165
"25.03.2024 02:45";165
"25.03.2024 03:00";165
"25.03.2024 03:15";165
"25.03.2024 03:30";165
"25.03.2024 03:45";166
"25.03.2024 04:00";166
"25.03.2024 04:15";166
"25.03.2024 04:30";166
"25.03.2024 04:45";166
"25.03.2024 05:00";166
"25.03.2024 05:15";166
"25.03.2024 05:30";166
"25.03.2024 05:45";167
"25.03.2024 06:00";167
"25.03.2024 06:15";167
"25.03.2024 06:30";167
"25.03.2024 06:45";167
"25.03.2024 07:00";167
"25.03.2024 07:15";167
"25.03.2024 07:30";167
"25.03.2024 07:45";167
"25.03.2024 08:00";168
"25.03.2024 08:15";168
"25.03.2024 08:30";168
"25.03.2024 08:45";168
"25.03.2024 09:00";168
"25.03.2024 09:15";168
"25.03.2024 09:30";168
"25.03.2024 09:45";168
"25.03.2024 10:00";168
"25.03.2024 10:15";168
"25.03.2024 10:30";169
"25.03.2024 10:45";169
"25.03.2024 11:00";169
"25.03.2024 11:15";169
"25.03.2024 11:30";170
"25.03.2024 11:45";170
"25.03.2024 12:00";170
"25.03.2024 12:15";170
"25.03.2024 12:30";170
"25.03.2024 12:45";170
"25.03.2024 13:00";170
"25.03.2024 13:15";171
"25.03.2024 13:30";171
"25.03.2024 13:45";171
"25.03.2024 14:00";171
"25.03.2024 14:15";171
"25.03.2024 14:30";171
"25.03.2024 14:45";171
"25.03.2024 15:00";172
"25.03.2024 15:15";172
"25.03.2024 15:30";172
"25.03.2024 15:45";172
"25.03.2024 16:00";172
"25.03.2024 16:15";172
"25.03.2024 16:30";172
"25.03.2024 16:45";172
"25.03.2024 17:00";173
"25.03.2024 17:15";173
"25.03.2024 17:30";173
"25.03.2024 17:45";173
"25.03.2024 18:00";173
"25.03.2024 18:15";173
"25.03.2024 18:30";173
"25.03.2024 18:45";173
"25.03.2024 19:00";173
"25.03.2024 19:15";174
"25.03.2024 19:30";174
"25.03.2024 19:45";174
"25.03.2024 20:00";174
"25.03.2024 20:15";174
"25.03.2024 20:30";174
"25.03.2024 20:45";174
"25.03.2024 21:00";174
"25.03.2024 21:15";174
"25.03.2024 21:30";174
"25.03.2024 21:45";175
"25.03.2024 22:00";175
"25.03.2024 22:15";175
"25.03.2024 22:30";175
"25.03.2024 22:45";175
"25.03.2024 23:00";175
"25.03.2024 23:15";175
"25.03.2024 23:30";176
"25.03.2024 23:45";176
"26.03.2024 00:00";176
"26.03.2024 00:15";176
"26.03.2024 00:30";176
"26.03.2024 00:45";176
"26.03.2024 01:00";176
"26.03.2024 01:15";176
"26.03.2024 01:30";176
"26.03.2024 01:45";176
"26.03.2024 02:00";177
"26.03.2024 02:15";177
"26.03.2024 02:30";177
"26.03.2024 02:45";177
"26.03.2024 03:00";177
"26.03.2024 03:15";177
"26.03.2024 03:30";177
"26.03.2024 03:45";177
"26.03.2024 04:00";177
"26.03.2024 04:15";177
"26.03.2024 04:30";178
"26.03.2024 04:45";178
"26.03.2024 05:00";178
"26.03.2024 05:15";178
"26.03.2024 05:30";178
"26.03.2024 05:45";178
"26.03.2024 06:00";178
"26.03.2024 06:15";178
"26.03.2024 06:30";178
"26.03.2024 06:45";178
"26.03.2024 07:00";178
"26.03.2024 07:15";179
"26.03.2024 07:30";179
"26.03.2024 07:45";179
"26.03.2024 08:00";179
"26.03.2024 08:15";179
"26.03.2024 08:30";179
"26.03.2024 08:45";179
"26.03.2024 09:00";179
"26.03.2024 09:15";180
"26.03.2024 09:30";180
"26.03.2024 09:45";180
"26.03.2024 10:00";180
"26.03.2024 10:15";180
"26.03.2024 10:30";180
"26.03.2024 10:45";180
"26.03.2024 11:00";180
"26.03.2024 11:15";180
"26.03.2024 11:30";180
"26.03.2024 11:45";180
"26.03.2024 12:00";180
"26.03.2024 12:15";180
"26.03.2024 12:30";180
"26.03.2024 12:45";180
"26.03.2024 13:00";180
"26.03.2024 13:15";180
"26.03.2024 13:30";180
"26.03.2024 13:45";180
"26.03.2024 14:00";181
"26.03.2024 14:15";181
"26.03.2024 14:30";181
"26.03.2024 14:45";181
"26.03.2024 15:00";181
"26.03.2024 15:15";181
"26.03.2024 15:30";181
"26.03.2024 15:45";181
"26.03.2024 16:00";181
"26.03.2024 16:15";181
"26.03.2024 16:30";181
"26.03.2024 16:45";181
"26.03.2024 17:00";181
"26.03.2024 17:15";181
"26.03.2024 17:30";181
"26.03.2024 17:45";181
"26.03.2024 18:00";181
"26.03.2024 18:15";181
"26.03.2024 18:30";181
"26.03.2024 18:45";181
"26.03.2024 19:00";181
"26.03.2024 19:15";181
"26.03.2024 19:30";181
"26.03.2024 19:45";181
"26.03.2024 20:00";182
"26.03.2024 20:15";182
"26.03.2024 20:30";182
"26.03.2024 20:45";182
"26.03.2024 21:00";182
"26.03.2024 21:15";182
"26.03.2024 21:30";182
"26.03.2024 21:45";182
"26.03.2024 22:00";182
"26.03.2024 22:15";182
"26.03.2024 22:30";182
"26.03.2024 22:45";182
"26.03.2024 23:00";182
"26.03.2024 23:15";183
"26.03.2024 23:30";183
"26.03.2024 23:45";183
"27.03.2024 00:00";183
"27.03.2024 00:15";183
"27.03.2024 00:30";183
"27.03.2024 00:45";183
"27.03.2024 01:00";183
"27.03.2024 01:15";183
"27.03.2024 01:30";183
"27.03.2024 01:45";183
"27.03.2024 02:00";183
"27.03.2024 02:15";183
"27.03.2024 02:30";183
"27.03.2024 02:45";183
"27.03.2024 03:00";183
"27.03.2024 03:15";183
"27.03.2024 03:30";183
"27.03.2024 03:45";183
"27.03.2024 04:00";183
"27.03.2024 04:15";183
"27.03.2024 04:30";183
"27.03.2024 04:45";183
"27.03.2024 05:00";183
"27.03.2024 05:15";183
"27.03.2024 05:30";183
"27.03.2024 05:45";183
"27.03.2024 06:00";183
"27.03.2024 06:15";183
"27.03.2024 06:30";183
"27.03.2024 06:45";183
"27.03.2024 07:00";183
"27.03.2024 07:15";183
"27.03.2024 07:30";183
"27.03.2024 07:45";183
"27.03.2024 08:00";183
"27.03.2024 08:15";183
"27.03.2024 08:30";183
"27.03.2024 08:45";183
"27.03.2024 09:00";183
"27.03.2024 09:15";183
"27.03.2024 09:30";182
"27.03.2024 09:45";183
"27.03.2024 10:00";183
"27.03.2024 10:15";183
"27.03.2024 10:30";183
"27.03.2024 10:45";183
"27.03.2024 11:00";183
"27.03.2024 11:15";183
"27.03.2024 11:30";183
"27.03.2024 11:45";183
"27.03.2024 12:00";183
"27.03.2024 12:15";183
"27.03.2024 12:30";182
"27.03.2024 12:45";182
"27.03.2024 13:00";182
"27.03.2024 13:15";183
"27.03.2024 13:30";182
"27.03.2024 13:45";182
"27.03.2024 14:00";182
"27.03.2024 14:15";182
"27.03.2024 14:30";182
"27.03.2024 14:45";182
"27.03.2024 15:00";182
"27.03.2024 15:15";182
"27.03.2024 15:30";182
"27.03.2024 15:45";182
"27.03.2024 16:00";182
"27.03.2024 16:15";182
"27.03.2024 16:30";181
"27.03.2024 16:45";182
"27.03.2024 17:00";182
"27.03.2024 17:15";182
"27.03.2024 17:30";181
"27.03.2024 17:45";182
"27.03.2024 18:00";182
"27.03.2024 18:15";182
"27.03.2024 18:30";182
"27.03.2024 18:45";182
"27.03.2024 19:00";182
"27.03.2024 19:15";182
"27.03.2024 19:30";182
"27.03.2024 19:45";182
"27.03.2024 20:00";182
"27.03.2024 20:15";182
"27.03.2024 20:30";182
"27.03.2024 20:45";182
"27.03.2024 21:00";182
"27.03.2024 21:15";182
"27.03.2024 21:30";182
"27.03.2024 21:45";182
"27.03.2024 22:00";182
"27.03.2024 22:15";183
"27.03.2024 22:30";183
"27.03.2024 22:45";183
"27.03.2024 23:00";183
"27.03.2024 23:15";183
"27.03.2024 23:30";183
"27.03.2024 23:45";183
"28.03.2024 00:00";183
"28.03.2024 00:15";183
"28.03.2024 00:30";183
"28.03.2024 00:45";183
"28.03.2024 01:00";183
"28.03.2024 01:15";183
"28.03.2024 01:30";183
"28.03.2024 01:45";183
"28.03.2024 02:00";184
"28.03.2024 02:15";184
"28.03.2024 02:30";184
"28.03.2024 02:45";184
"28.03.2024 03:00";184
"28.03.2024 03:15";184
"28.03.2024 03:30";184
"28.03.2024 03:45";184
"28.03.2024 04:00";184
"28.03.2024 04:15";184
"28.03.2024 04:30";184
"28.03.2024 04:45";184
"28.03.2024 05:00";184
"28.03.2024 05:15";184
"28.03.2024 05:30";184
"28.03.2024 05:45";184
"28.03.2024 06:00";184
"28.03.2024 06:15";184
"28.03.2024 06:30";184
"28.03.2024 06:45";184
"28.03.2024 07:00";185
"28.03.2024 07:15";185
"28.03.2024 07:30";185
"28.03.2024 07:45";185
"28.03.2024 08:00";185
"28.03.2024 08:15";185
"28.03.2024 08:30";185
"28.03.2024 08:45";185
"28.03.2024 09:00";185
"28.03.2024 09:15";185
"28.03.2024 09:30";185
"28.03.2024 09:45";185
"28.03.2024 10:00";185
"28.03.2024 10:15";185
"28.03.2024 10:30";185
"28.03.2024 10:45";185
"28.03.2024 11:00";185
"28.03.2024 11:15";185
"28.03.2024 11:30";185
"28.03.2024 11:45";185
"28.03.2024 12:00";184
"28.03.2024 12:15";184
"28.03.2024 12:30";184
"28.03.2024 12:45";185
"28.03.2024 13:00";185
"28.03.2024 13:15";185
"28.03.2024 13:30";185
"28.03.2024 13:45";185
"28.03.2024 14:00";185
"28.03.2024 14:15";185
"28.03.2024 14:30";185
"28.03.2024 14:45";185
"28.03.2024 15:00";185
"28.03.2024 15:15";186
"28.03.2024 15:30";186
"28.03.2024 15:45";186
"28.03.2024 16:00";186
"28.03.2024 16:15";186
"28.03.2024 16:30";186
"28.03.2024 16:45";186
"28.03.2024 17:00";187
"28.03.2024 17:15";187
"28.03.2024 17:30";187
"28.03.2024 17:45";187
"28.03.2024 18:00";187
"28.03.2024 18:15";186
"28.03.2024 18:30";187
"28.03.2024 18:45";187
"28.03.2024 19:00";187
"28.03.2024 19:15";186
"28.03.2024 19:30";186
"28.03.2024 19:45";186
"28.03.2024 20:00";186
"28.03.2024 20:15";186
"28.03.2024 20:30";186
"28.03.2024 20:45";186
"28.03.2024 21:00";185
"28.03.2024 21:15";185
"28.03.2024 21:30";185
"28.03.2024 21:45";185
"28.03.2024 22:00";185
"28.03.2024 22:15";185
"28.03.2024 22:30";185
"28.03.2024 22:45";185
"28.03.2024 23:00";185
"28.03.2024 23:15";185
"28.03.2024 23:30";185
"28.03.2024 23:45";185
"29.03.2024 00:00";185
"29.03.2024 00:15";185
"29.03.2024 00:30";185
"29.03.2024 00:45";184
"29.03.2024 01:00";184
"29.03.2024 01:15";184
"29.03.2024 01:30";184
"29.03.2024 01:45";184
"29.03.2024 02:00";184
"29.03.2024 02:15";184
"29.03.2024 02:30";184
"29.03.2024 02:45";184
"29.03.2024 03:00";184
"29.03.2024 03:15";184
"29.03.2024 03:30";184
"29.03.2024 03:45";184
"29.03.2024 04:00";184
"29.03.2024 04:15";184
"29.03.2024 04:30";184
"29.03.2024 04:45";184
"29.03.2024 05:00";184
"29.03.2024 05:15";184
"29.03.2024 05:30";184
"29.03.2024 05:45";184
"29.03.2024 06:00";184
"29.03.2024 06:15";184
"29.03.2024 06:30";184
"29.03.2024 06:45";184
"29.03.2024 07:00";184
"29.03.2024 07:15";184
"29.03.2024 07:30";184
"29.03.2024 07:45";184
"29.03.2024 08:00";184
"29.03.2024 08:15";184
"29.03.2024 08:30";184
"29.03.2024 08:45";184
"29.03.2024 09:00";184
"29.03.2024 09:15";184
"29.03.2024 09:30";184
"29.03.2024 09:45";183
"29.03.2024 10:00";183
"29.03.2024 10:15";183
"29.03.2024 10:30";183
"29.03.2024 10:45";183
"29.03.2024 11:00";183
"29.03.2024 11:15";183
"29.03.2024 11:30";183
"29.03.2024 11:45";183
"29.03.2024 12:00";183
"29.03.2024 12:15";183
"29.03.2024 12:30";183
"29.03.2024 12:45";183
"29.03.2024 13:00";183
"29.03.2024 13:15";182
"29.03.2024 13:30";182
"29.03.2024 13:45";182
"29.03.2024 14:00";182
"29.03.2024 14:15";182
"29.03.2024 14:30";182
"29.03.2024 14:45";182
"29.03.2024 15:00";182
"29.03.2024 15:15";182
"29.03.2024 15:30";182
"29.03.2024 15:45";182
"29.03.2024 16:00";182
"29.03.2024 16:15";182
"29.03.2024 16:30";182
"29.03.2024 16:45";182
"29.03.2024 17:00";182
"29.03.2024 17:15";182
"29.03.2024 17:30";182
"29.03.2024 17:45";182
"29.03.2024 18:00";182
"29.03.2024 18:15";182
"29.03.2024 18:30";182
"29.03.2024 18:45";182
"29.03.2024 19:00";182
"29.03.2024 19:15";182
"29.03.2024 19:30";182
"29.03.2024 19:45";182
"29.03.2024 20:00";182
"29.03.2024 20:15";182
"29.03.2024 20:30";182
"29.03.2024 20:45";182
"29.03.2024 21:00";182
"29.03.2024 21:15";182
"29.03.2024 21:30";182
"29.03.2024 21:45";182
"29.03.2024 22:00";182
"29.03.2024 22:15";182
"29.03.2024 22:30";182
"29.03.2024 22:45";182
"29.03.2024 23:00";182
"29.03.2024 23:15";182
"29.03.2024 23:30";182
"29.03.2024 23:45";182
"30.03.2024 00:00";182
"30.03.2024 00:15";182
"30.03.2024 00:30";181
"30.03.2024 00:45";181
"30.03.2024 01:00";181
"30.03.2024 01:15";181
"30.03.2024 01:30";181
"30.03.2024 01:45";181
"30.03.2024 02:00";181
"30.03.2024 02:15";181
"30.03.2024 02:30";181
"30.03.2024 02:45";181
"30.03.2024 03:00";181
"30.03.2024 03:15";181
"30.03.2024 03:30";181
"30.03.2024 03:45";181
"30.03.2024 04:00";181
"30.03.2024 04:15";181
"30.03.2024 04:30";181
"30.03.2024 04:45";181
"30.03.2024 05:00";181
"30.03.2024 05:15";181
"30.03.2024 05:30";181
"30.03.2024 05:45";181
"30.03.2024 06:00";181
"30.03.2024 06:15";181
"30.03.2024 06:30";181
"30.03.2024 06:45";181
"30.03.2024 07:00";181
"30.03.2024 07:15";180
"30.03.2024 07:30";181
"30.03.2024 07:45";181
"30.03.2024 08:00";180
"30.03.2024 08:15";181
"30.03.2024 08:30";181
"30.03.2024 08:45";181
"30.03.2024 09:00";181
"30.03.2024 09:15";181
"30.03.2024 09:30";181
"30.03.2024 09:45";181
"30.03.2024 10:00";181
"30.03.2024 10:15";181
"30.03.2024 10:30";181
"30.03.2024 10:45";181
"30.03.2024 11:00";181
"30.03.2024 11:15";181
"30.03.2024 11:30";181
"30.03.2024 11:45";181
"30.03.2024 12:00";181
"30.03.2024 12:15";181
"30.03.2024 12:30";181
"30.03.2024 12:45";181
"30.03.2024 13:00";181
"30.03.2024 13:15";181
"30.03.2024 13:30";181
"30.03.2024 13:45";181
"30.03.2024 14:00";181
"30.03.2024 14:15";181
"30.03.2024 14:30";181
"30.03.2024 14:45";181
"30.03.2024 15:00";180
"30.03.2024 15:15";180
"30.03.2024 15:30";180
"30.03.2024 15:45";180
"30.03.2024 16:00";180
"30.03.2024 16:15";180
"30.03.2024 16:30";180
"30.03.2024 16:45";180
"30.03.2024 17:00";180
"30.03.2024 17:15";180
"30.03.2024 17:30";180
"30.03.2024 17:45";180
"30.03.2024 18:00";180
"30.03.2024 18:15";180
"30.03.2024 18:30";180
"30.03.2024 18:45";179
"30.03.2024 19:00";179
"30.03.2024 19:15";179